Location: Newark
(54.6833°N, 25.2833°E)
Time: 16:16:58
(UTC+00:00)

Tiros 1 despin weight - Pass Details

Date: 26 November 2019
Orbit: 594 x 642 km, 48.2° (Epoch: 08 December)

Event Time Altitude Azimuth Distance (km) Brightness Sun altitude
Rises 14:32:01 0° 270° (W) 2,836 ? -4.4°
Reaches altitude 10° 14:35:21 10° 244° (WSW) 1,936 ? -4.8°
Maximum altitude 14:37:30 13° 214° (SW) 1,722 ? -5.1°
Drops below altitude 10° 14:39:39 10° 185° (S) 1,942 ? -5.3°
Sets 14:43:01 0° 159° (SSE) 2,852 ? -5.8°
